{"data":{"norad_id":67360,"intl_designator":"2026-003AC","name":"STARLINK-36469","alt_names":[],"object_type":"PAYLOAD","status":"ACTIVE","operator":null,"country":"US","launch_date":"2026-01-09","launch_site_code":"AFETR","launch_vehicle":null,"mission":null,"orbit_class":"UNKNOWN","rcs_meters":null,"size_class":null,"mass_kg":null,"dimensions":null,"purposes":["comms"],"wikipedia_slug":null,"has_3d_model":false,"image_url":null,"decayed_at":null,"tle_current":{"epoch":"2026-09-19T21:55:43.611744Z","epoch_age_seconds":126011,"freshness":"FRESH","line1":"1 67360U 26003AC  26262.91369921  .00015419  00000+0  56850-3 0  9997","line2":"2 67360  43.0025 210.5651 0001219 265.2140  94.8573 15.27589917 38529","mean_motion":15.27589917,"eccentricity":0.0001219,"inclination_deg":43.0025,"raan_deg":210.5651,"arg_perigee_deg":265.214,"mean_anomaly_deg":94.8573,"bstar":0.0005685,"rev_number":3852,"period_min":94.266136740938,"perigee_km":482.18302616938,"apogee_km":483.85577609998,"semimajor_km":6861.1564011347,"source":"CELESTRAK","updated_at":"2026-09-20T09:00:43.517494Z"}}}